Temp_Advection
nan nan nan nan nan nan nan nan nan nan nan nan nan nan nan nan nan nan nan nan nan nan nan nan nan nan nan nan nan nan nan nan nan
nan -0 0 -0 0 0 0 -0 -0 -0 -0 0 0 0 -0 -0 0 0 0 0 0 0 -0 0 0 0 0 -0 -0 0 -0 0 nan
nan -0 0 0 0 0 0 -0 0 0 -0 -0 0 0 0 -0 0 0 0 0 0 0 0 -0 0 0 0 0 -0 -0 -0 -0 nan
nan 0 0 0 0 0 0 0 0 0 0 -0 0 0 0 0 0 0 0 0 0 0 0 0 0 0 0 0 0 0 0 0 nan
nan 0 0 0 0 0 0 0 0 0 0 0 0 0 0 0 0 0 0 0 0 0 0 0 0 0 0 0 0 0 0 0 nan
nan -0 0 0 0 0 0 0 0 0 0 0 0 0 0 -0 -0 -0 0 0 0 0 0 0 0 0 0 0 0 -0 0 -0 nan
nan -0 0 0 0 0 0 0 0 0 0 0 0 0 0 0 -0 -0 0 0 0 0 0 0 0 0 0 0 0 0 0 0 nan
nan -0 -0 0 0 0 0 0 0 0 0 0 0 0 0 0 0 0 -0 0 0 0 0 0 0 0 0 0 0 0 0 0 nan
nan 0 -0 0 0 0 0 0 0 0 0 0 0 0 0 0 0 -0 -0 -0 0 0 0 0 0 -0 0 0 0 0 0 0 nan
nan 0 0 0 0 0 0 0 0 0 0 0 0 0 0 0 0 0 -0 -0 0 0 0 0 -0 0 0 0 0 0 0 0 nan
nan 0 0 0 0 0 0 0 0 0 0 0 0 0 0 0 0 0 -0 -0 -0 0 0 0 0 0 0 0 0 0 0 0 nan
nan 0 0 0 0 0 0 -0 0 0 0 0 0 0 0 0 0 0 -0 -0 -0 -0 -0 0 0 0 0 -0 0 0 0 0 nan
nan 0 0 0 0 0 0 0 0 0 0 -0 0 0 0 -0 0 0 0 0 -0 -0 -0 0 0 0 -0 -0 0 0 0 0 nan
nan 0 0 0 0 0 0 0 -0 0 0 0 -0 -0 -0 -0 0 -0 -0 0 0 0 -0 -0 0 -0 -0 -0 -0 -0 0 0 nan
nan 0 0 0 0 0 0 0 0 0 0 0 -0 -0 -0 0 -0 -0 0 -0 0 0 -0 -0 -0 -0 -0 -0 -0 0 0 0 nan
nan 0 0 0 0 0 0 0 -0 -0 -0 -0 0 -0 -0 -0 -0 -0 -0 0 0 0 0 0 -0 -0 -0 -0 -0 0 0 0 nan
nan 0 0 0 0 0 -0 -0 -0 -0 -0 -0 -0 -0 -0 -0 0 -0 -0 0 0 0 0 0 -0 -0 -0 -0 -0 0 0 -0 nan
nan -0 -0 0 -0 -0 0 0 0 -0 -0 0 -0 -0 -0 -0 -0 -0 -0 0 0 -0 0 0 -0 -0 -0 -0 0 0 -0 0 nan
nan -0 -0 -0 -0 -0 0 0 -0 -0 -0 -0 -0 0 0 -0 -1 -0 -0 -0 -0 0 0 0 -0 -0 -0 -0 0 0 -0 0 nan
nan nan nan nan nan nan nan nan nan nan nan nan nan nan nan nan nan nan nan nan nan nan nan nan nan nan nan nan nan nan nan nan nan
Wind_Speed
11 12 6 5 5 5 5 7 11 12 13 12 11 11 11 10 10 8 9 10 11 11 11 11 13 13 13 13 13 13 14 13 13
8 7 5 1 3 4 4 6 8 11 12 12 12 10 8 10 8 8 9 10 11 11 11 11 11 10 10 10 10 11 11 11 11
3 3 3 1 1 2 3 3 6 8 11 11 10 9 6 6 6 6 7 8 10 10 11 10 9 7 8 8 8 8 9 9 9
3 4 3 3 2 1 2 3 5 7 9 12 11 9 7 4 4 5 6 8 9 9 9 8 7 6 5 6 6 6 6 6 7
2 3 4 5 5 3 2 2 4 7 9 12 10 7 5 4 5 5 4 6 7 7 7 7 6 5 5 6 5 4 4 5 6
2 3 5 6 5 4 3 3 5 9 10 11 8 8 5 3 1 1 3 4 6 6 6 6 6 6 5 4 4 3 4 5 4
3 4 4 5 6 5 4 4 5 11 11 12 10 7 5 3 2 2 1 2 4 5 5 6 6 6 5 3 3 4 5 6 5
3 2 0 4 7 7 7 5 5 7 10 10 7 5 3 5 4 5 3 3 4 4 5 5 7 6 5 4 4 4 5 6 5
2 0 1 3 4 7 7 6 4 5 7 8 6 7 6 8 7 8 5 5 4 5 5 6 7 5 5 6 6 6 6 6 6
4 2 2 2 1 4 5 4 2 3 5 6 8 10 9 9 8 8 6 4 3 5 6 7 8 6 6 6 7 7 7 6 6
7 7 7 5 4 2 6 7 5 6 9 12 10 10 14 11 11 9 9 7 6 6 7 7 9 8 7 6 7 8 8 8 8
5 10 8 6 4 6 7 6 8 9 11 11 13 15 15 12 13 13 10 10 8 9 7 8 9 10 8 7 9 10 10 10 10
3 5 12 12 9 6 8 12 10 10 12 14 9 11 14 15 13 15 12 11 12 10 9 9 8 10 8 9 10 11 12 12 12
1 3 6 10 11 8 7 9 9 11 11 12 13 14 14 13 15 18 15 17 15 15 13 12 11 12 11 9 11 12 14 14 13
3 5 5 6 8 11 8 9 10 12 11 11 11 14 15 17 18 19 19 19 18 17 17 15 13 15 15 15 13 13 13 12 11
3 4 6 7 6 4 6 12 12 12 12 13 14 15 17 21 22 21 21 22 22 21 20 19 18 16 18 19 18 15 15 13 12
6 5 7 7 7 5 5 7 10 11 12 13 13 14 15 16 22 23 25 25 26 23 22 22 24 24 21 21 21 18 19 16 16
7 7 8 9 9 9 9 9 10 12 13 13 12 8 5 10 8 15 20 26 28 27 27 29 26 25 24 23 24 24 24 20 18
9 11 10 10 12 12 12 11 12 14 15 16 18 20 22 21 14 9 7 10 15 21 24 28 29 29 27 26 27 26 26 27 24
6 9 12 12 13 14 14 15 16 16 16 17 18 20 22 24 27 30 27 26 26 21 20 24 20 28 32 29 28 30 28 29 27
Wind_Direction
117 118 127 127 97 90 101 107 111 111 119 109 102 93 91 89 80 104 119 125 130 129 122 113 115 111 103 95 90 92 93 93 94
123 146 155 134 105 113 107 111 121 123 132 121 115 103 103 86 86 98 116 130 130 130 123 118 120 115 107 98 93 98 92 91 92
148 176 184 214 213 139 122 119 125 132 144 140 136 120 106 95 71 92 125 125 129 135 134 135 129 119 112 99 99 101 100 95 95
200 214 220 239 255 272 131 140 143 150 153 154 146 139 123 108 82 85 122 138 141 141 146 149 149 144 127 115 118 116 109 105 104
246 260 251 237 229 220 167 144 154 167 162 161 153 152 128 128 110 92 120 132 144 152 157 159 160 160 151 136 133 137 122 111 111
301 286 261 239 223 214 172 162 166 174 168 162 144 147 138 121 80 16 118 132 152 159 165 166 170 174 167 159 150 155 139 129 125
316 304 264 231 214 196 180 175 151 171 173 167 161 157 140 228 217 316 225 174 166 171 178 178 180 178 173 170 160 149 155 145 144
307 344 62 195 190 189 185 173 153 174 180 174 173 176 192 214 227 285 253 215 194 182 192 188 194 207 205 197 189 174 168 165 160
214 206 81 107 164 185 201 188 193 175 193 201 200 206 212 229 230 269 270 236 206 207 211 215 214 226 219 207 196 192 186 184 182
204 180 146 119 68 163 180 185 194 212 218 215 219 222 229 227 235 258 257 253 239 230 224 225 238 233 213 213 208 205 203 206 201
204 188 195 171 191 149 221 212 230 256 245 238 231 225 232 241 241 248 274 272 268 249 239 239 233 232 218 217 216 215 216 219 221
217 207 205 197 196 228 238 241 245 245 263 254 231 226 227 239 244 249 257 270 267 259 253 240 239 231 234 236 232 226 225 226 228
244 213 215 215 214 229 247 249 252 263 268 279 240 235 231 234 240 245 244 254 262 267 260 254 237 234 242 251 245 235 233 233 236
203 215 213 221 224 234 251 258 259 263 270 270 277 243 239 241 247 249 246 254 258 272 262 256 240 240 250 257 254 249 239 236 236
193 216 219 212 220 227 249 244 265 266 267 271 277 250 240 239 246 249 249 254 255 261 270 259 252 241 243 253 258 246 233 220 214
231 229 241 241 226 244 254 257 265 269 270 274 275 280 259 242 241 242 248 252 255 257 258 263 261 256 240 246 251 241 213 213 225
255 253 250 253 244 233 266 267 272 266 269 272 282 294 294 270 248 249 249 247 248 249 251 254 259 261 251 236 242 236 231 242 234
269 270 258 253 252 243 236 253 256 266 262 265 264 284 274 324 279 264 263 255 251 255 256 253 255 255 254 237 232 237 241 242 233
269 280 278 268 260 254 241 244 255 256 258 265 263 263 267 281 294 279 279 289 265 263 261 261 257 253 256 243 233 233 233 237 240
276 277 281 284 274 265 259 248 246 256 260 257 265 266 266 267 266 282 283 283 277 272 268 285 277 256 251 246 235 235 234 227 243
Height
1562 1564 1566 1566 1565 1565 1566 1566 1565 1564 1566 1566 1565 1565 1565 1565 1564 1565 1566 1567 1567 1567 1568 1568 1569 1570 1571 1571 1571 1571 1571 1571 1571
1563 1566 1566 1565 1566 1567 1566 1567 1567 1567 1567 1566 1565 1566 1566 1566 1567 1568 1568 1568 1569 1569 1569 1571 1571 1572 1573 1572 1573 1573 1573 1573 1573
1564 1565 1566 1565 1565 1566 1566 1567 1567 1567 1568 1567 1567 1568 1568 1568 1569 1569 1569 1569 1570 1571 1571 1572 1573 1575 1574 1574 1575 1575 1574 1575 1575
1563 1564 1564 1565 1564 1565 1566 1567 1568 1568 1568 1568 1568 1569 1569 1569 1570 1570 1571 1571 1571 1572 1573 1573 1575 1576 1576 1576 1576 1576 1576 1576 1576
1563 1564 1564 1564 1565 1565 1566 1567 1568 1568 1568 1569 1569 1570 1571 1572 1572 1572 1572 1572 1572 1573 1573 1574 1576 1577 1577 1577 1577 1578 1576 1577 1577
1563 1562 1563 1564 1564 1565 1566 1567 1568 1568 1568 1569 1570 1572 1572 1573 1574 1573 1572 1573 1573 1574 1575 1576 1577 1577 1578 1578 1578 1578 1577 1577 1578
1562 1562 1562 1563 1564 1565 1566 1567 1568 1568 1568 1570 1571 1573 1573 1574 1574 1573 1573 1574 1574 1575 1575 1576 1577 1578 1578 1579 1578 1578 1578 1578 1579
1561 1561 1562 1562 1564 1565 1565 1567 1568 1569 1569 1571 1572 1573 1574 1575 1575 1574 1574 1574 1575 1575 1576 1577 1577 1578 1578 1579 1578 1579 1579 1579 1579
1562 1562 1563 1563 1563 1565 1565 1568 1569 1569 1569 1571 1573 1573 1574 1575 1575 1574 1574 1575 1575 1575 1575 1576 1577 1577 1578 1578 1578 1579 1579 1580 1579
1562 1563 1563 1564 1564 1565 1566 1567 1568 1569 1570 1571 1571 1572 1574 1574 1575 1574 1574 1574 1574 1575 1575 1576 1576 1576 1577 1578 1578 1578 1578 1579 1579
1562 1563 1563 1564 1564 1566 1567 1567 1568 1568 1569 1570 1570 1571 1572 1573 1574 1574 1574 1574 1574 1575 1575 1575 1576 1576 1576 1577 1577 1577 1577 1578 1578
1561 1562 1562 1563 1564 1566 1565 1566 1567 1568 1568 1567 1567 1569 1571 1571 1572 1572 1573 1573 1574 1574 1574 1574 1575 1575 1575 1576 1576 1576 1576 1577 1577
1560 1560 1561 1562 1563 1564 1564 1564 1566 1566 1566 1565 1566 1567 1567 1568 1570 1570 1571 1572 1572 1572 1572 1573 1573 1574 1574 1574 1574 1574 1575 1575 1576
1557 1559 1560 1561 1562 1563 1563 1564 1564 1565 1565 1564 1564 1564 1565 1566 1567 1568 1568 1569 1570 1570 1571 1571 1572 1572 1572 1572 1572 1572 1573 1573 1573
1556 1557 1557 1558 1560 1562 1562 1563 1563 1563 1563 1563 1562 1562 1563 1563 1564 1565 1566 1567 1567 1568 1568 1569 1569 1570 1570 1571 1570 1570 1571 1571 1572
1557 1557 1558 1558 1559 1559 1560 1561 1561 1562 1562 1562 1561 1560 1559 1559 1560 1561 1562 1563 1564 1564 1565 1565 1566 1566 1567 1568 1569 1569 1569 1569 1570
1557 1557 1557 1557 1558 1559 1559 1559 1559 1560 1561 1561 1561 1559 1556 1555 1556 1557 1557 1558 1558 1560 1561 1561 1562 1563 1564 1565 1566 1567 1567 1567 1568
1555 1555 1556 1556 1556 1557 1558 1558 1558 1558 1559 1559 1561 1559 1556 1554 1553 1553 1553 1552 1554 1555 1555 1556 1557 1558 1559 1560 1562 1563 1563 1564 1565
1554 1554 1554 1554 1554 1554 1555 1555 1555 1555 1555 1556 1557 1557 1556 1555 1552 1551 1550 1550 1550 1551 1551 1551 1551 1552 1553 1555 1556 1558 1559 1560 1562
1552 1552 1552 1552 1552 1551 1551 1551 1552 1552 1552 1552 1552 1552 1552 1552 1551 1546 1546 1546 1546 1547 1546 1546 1545 1545 1546 1548 1551 1553 1554 1555 1557